[[{"header":{"parameterUnit":"m.s-1","parameterCategory":1,"la1":30.2991,"la2":30.254,"lo1":-89.0895,"lo2":-89.0444,"dx":0.0017,"dy":0.0017,"nx":28,"ny":28,"refTime":"2023-02-06T09:00:00:Z","depth":0,"parameterNumber":2,"parameterNumberName":"U-component_of_WINDS"},"data":[0,0,0,0,0,0,0,0,0,0,0,0,0,0,0,0,0,0,0,0,0,0,0,0,0,0,0,0,0,0,0,0,0,0,0,0,0,0,0,0,0,0,0,0,0,0,0,0,0,0,0,0,0,0,0,0,0,0,-5.1344,-5.1345,0,-5.1409,-5.141,-5.141,-5.1358,-5.1356,-5.1354,-5.1352,-5.1418,-5.1421,-5.1425,0,0,0,0,0,0,0,0,0,0,0,0,0,-5.1176,-5.118,-5.1344,-5.1345,-5.1346,-5.1409,-5.141,-5.1411,-5.1359,-5.1356,-5.1353,-5.1351,-5.1416,-5.1421,-5.1425,0,0,0,0,0,0,0,0,0,0,0,0,0,-5.1246,-5.1181,-5.1344,-5.1327,-5.1327,-5.1409,-5.141,-5.1411,-5.1359,-5.1356,-5.1353,-5.1349,-5.1415,-5.142,-5.1426,-5.1528,0,0,-5.1443,-5.1446,0,0,0,0,0,0,0,0,-5.1242,-5.1252,-5.1329,-5.1329,-5.1328,-5.1372,-5.1375,-5.145,-5.136,-5.1347,-5.1352,-5.1348,-5.1405,-5.1411,-5.1431,-5.1531,-5.1533,-5.1444,-5.1447,-5.145,-5.1452,0,0,0,0,0,0,0,-5.1237,-5.1249,-5.137,-5.133,-5.133,-5.1317,-5.1323,-5.1389,-5.1394,-5.1348,-5.1344,-5.1353,-5.1404,-5.1425,-5.1432,-5.1534,-5.1444,-5.1449,-5.1452,-5.1455,-5.1722,-5.1725,0,0,0,0,0,0,-5.1234,-5.1245,-5.1368,-5.1372,-5.1276,-5.1323,-5.133,-5.1361,-5.1393,-5.1395,-5.1355,-5.135,-5.1417,-5.1425,-5.1434,-5.1555,-5.145,-5.1455,-5.1458,-5.1718,-5.1723,-5.1727,0,0,0,0,0,0,-5.1231,-5.1245,-5.1365,-5.1308,-5.1322,-5.1329,-5.1365,-5.1364,-5.1385,-5.1399,-5.1399,-5.1376,-5.1415,-5.1426,-5.1505,-5.1557,-5.1458,-5.1463,-5.1714,-5.172,-5.1725,-5.1798,0,0,0,0,0,0,-5.1226,-5.1245,-5.1283,-5.1309,-5.1325,-5.1435,-5.1368,-5.1368,-5.1395,-5.1389,-5.1418,-5.142,-5.1413,-5.1497,-5.1511,-5.1563,-5.1467,-5.1709,-5.1716,-5.1723,-5.1791,-5.1805,-5.1818,0,0,0,0,0,-5.122,-5.1301,-5.1285,-5.13,-5.1373,-5.1438,-5.1447,-5.1438,-5.14,-5.1439,-5.1447,-5.1419,-5.1549,-5.1505,-5.152,-5.1575,-5.1706,-5.1714,-5.1722,-5.1785,-5.1802,-5.1817,0,0,0,0,0,0,-5.128,-5.1303,-5.1286,-5.1378,-5.1406,-5.1429,-5.1477,-5.1457,-5.1496,-5.1489,-5.1476,-5.1483,-5.1566,-5.1578,-5.1529,-5.1676,-5.1621,-5.1633,-5.1664,-5.1681,-5.1694,-5.1688,-5.1472,0,0,0,0,0,-5.1304,-5.1354,-5.1372,-5.1451,-5.1466,-5.147,-5.1497,-5.1488,-5.1517,-5.1529,-5.1543,-5.1572,-5.162,-5.1651,-5.1695,-5.1793,-5.1799,-5.1839,-5.1852,-5.1863,-5.1872,-5.1925,-5.1943,-5.1754,-5.1754,-5.1754,0,0,-5.1353,-5.1372,-5.1405,-5.1463,-5.1484,-5.1537,-5.148,-5.1538,-5.1577,-5.1537,-5.1612,-5.1625,-5.1656,-5.1745,-5.1785,-5.1758,-5.1926,-5.1873,-5.1882,-5.1886,-5.1936,-5.1954,-5.197,-5.1759,-5.1758,-5.1757,0,0,-5.1469,-5.1489,-5.1557,-5.158,-5.1613,-5.1615,-5.1632,-5.1658,-5.1665,-5.174,-5.1712,-5.1759,-5.1841,-5.1865,-5.1887,-5.2016,-5.1991,-5.2031,-5.21,-5.2152,-5.2167,-5.218,-5.2225,-5.2242,-5.2041,-5.2041,-5.2042,0,-5.1526,-5.1604,-5.1595,-5.1655,-5.1682,-5.165,-5.1719,-5.1741,-5.1787,-5.1806,-5.1776,-5.1879,-5.1899,-5.1993,-5.2024,-5.2044,-5.2063,-5.2027,-5.2166,-5.2179,-5.2191,-5.2234,-5.2251,-5.2046,-5.2045,-5.2045,-5.2044,0,-5.1673,-5.1728,-5.1779,-5.1824,-5.1857,-5.1922,-5.1922,-5.1957,-5.1946,-5.1951,-5.2029,-5.2051,-5.21,-5.2122,-5.2111,-5.2216,-5.2198,-5.2167,-5.2112,-5.2213,-5.2254,-5.227,-5.2052,-5.2051,-5.2049,-5.2048,0,0,-5.1826,-5.1867,-5.1886,-5.1906,-5.1942,-5.1984,-5.2048,-5.2096,-5.2126,-5.2159,-5.2212,-5.2284,-5.2256,-5.2282,-5.2274,-5.232,-5.242,-5.2283,-5.2284,-5.2307,-5.2536,-5.2558,-5.2577,-5.2405,-5.2408,-5.2411,-5.2533,0,-5.1943,-5.2054,-5.2048,-5.2151,-5.2202,-5.2174,-5.223,-5.2258,-5.2265,-5.231,-5.2318,-5.2369,-5.2328,-5.2344,-5.2388,-5.2399,-5.2466,-5.239,-5.2453,-5.2456,-5.2445,-5.2598,-5.2621,-5.2735,-5.2549,-5.2551,-5.2553,0,-5.2094,-5.2133,-5.2242,-5.2271,-5.2292,-5.2342,-5.2387,-5.243,-5.2461,-5.2464,-5.2494,-5.248,-5.2544,-5.249,-5.2579,-5.2528,-5.2554,-5.2563,-5.2567,-5.2571,-5.2509,-5.2605,-5.2772,-5.2788,-5.2578,-5.2576,-5.2574,0,-5.2194,-5.2274,-5.235,-5.2369,-5.2404,-5.244,-5.2457,-5.2485,-5.2515,-5.2554,-5.2574,-5.262,-5.2645,-5.2681,-5.268,-5.264,-5.277,-5.2715,-5.2774,-5.2774,-5.28,-5.2798,-5.2972,-5.282,-5.282,-5.282,-5.2819,0,-5.2324,-5.2392,-5.2395,-5.2442,-5.2517,-5.2511,-5.2585,-5.2598,-5.2624,-5.2673,-5.2652,-5.2698,-5.2694,-5.2741,-5.274,-5.2814,-5.2826,-5.2829,-5.2828,-5.283,-5.283,-5.2846,-5.2837,-5.2824,-5.2823,-5.2822,-5.2822,0,-5.2447,-5.2452,-5.2533,-5.2561,-5.257,-5.2624,-5.2648,-5.2692,-5.2699,-5.2761,-5.2775,-5.2786,-5.284,-5.2843,-5.2905,-5.2905,-5.2994,-5.2985,-5.2984,-5.2981,-5.3039,-5.3033,-5.3228,-5.3253,-5.3086,-5.3088,-5.3089,0,-5.2529,-5.2581,-5.2615,-5.2646,-5.2665,-5.2716,-5.2747,-5.2743,-5.2776,-5.2817,-5.2857,-5.2909,-5.2951,-5.3039,-5.3052,-5.31,-5.3091,-5.3156,-5.3097,-5.3098,-5.309,-5.3087,-5.3092,-5.3166,-5.3168,-5.317,-5.3171,0,-5.2674,-5.2675,-5.272,-5.2767,-5.2804,-5.2841,-5.2875,-5.2902,-5.2903,-5.2941,-5.2996,-5.3029,-5.3093,-5.3145,-5.3193,-5.321,-5.3191,-5.319,-5.3205,-5.3207,-5.3204,-5.3205,-5.3013,-5.3184,-5.3183,-5.3182,-5.3181,-5.3181,-5.2778,-5.2823,-5.2854,-5.2906,-5.2932,-5.2964,-5.3007,-5.3021,-5.3067,-5.3119,-5.3115,-5.3176,-5.3208,-5.327,-5.3291,-5.3339,-5.3317,-5.334,-5.3345,-5.3351,-5.3356,-5.3198,-5.3348,-5.3348,-5.3347,-5.3347,-5.3347,0,-5.2921,-5.2941,-5.2988,-5.3037,-5.3078,-5.3058,-5.3095,-5.313,-5.3185,-5.3217,-5.3259,-5.3323,-5.3374,-5.3393,-5.3442,-5.3478,-5.347,-5.3491,-5.3487,-5.3491,-5.3374,-5.3355,-5.3496,-5.3496,-5.3496,-5.3496,-5.3496,-5.3496,-5.3,-5.3075,-5.3079,-5.3167,-5.3186,-5.3246,-5.3269,-5.33,-5.3325,-5.3398,-5.3441,-5.3453,-5.3479,-5.3531,-5.3578,-5.3582,-5.3601,-5.3625,-5.3625,-5.3515,-5.3499,-5.3485,-5.3467,-5.3629,-5.3629,-5.3738,-5.3739,-5.374]},{"header":{"parameterUnit":"m.s-1","parameterCategory":1,"la1":30.2991,"la2":30.254,"lo1":-89.0895,"lo2":-89.0444,"dx":0.0017,"dy":0.0017,"nx":28,"ny":28,"refTime":"2023-02-06T09:00:00:Z","depth":0,"parameterNumber":3,"parameterNumberName":"V-component_of_WINDS"},"data":[0,0,0,0,0,0,0,0,0,0,0,0,0,0,0,0,0,0,0,0,0,0,0,0,0,0,0,0,0,0,0,0,0,0,0,0,0,0,0,0,0,0,0,0,0,0,0,0,0,0,0,0,0,0,0,0,0,0,1.5731,1.5733,0,1.5864,1.5866,1.5867,1.5993,1.5995,1.5996,1.5998,1.6131,1.6133,1.6135,0,0,0,0,0,0,0,0,0,0,0,0,0,1.5584,1.5586,1.5731,1.5733,1.5734,1.5864,1.5866,1.5867,1.5993,1.5995,1.5997,1.5999,1.6131,1.6133,1.6136,0,0,0,0,0,0,0,0,0,0,0,0,0,1.5675,1.5587,1.5731,1.5813,1.5821,1.5863,1.5866,1.5868,1.5992,1.5995,1.5997,1.6,1.613,1.6133,1.6136,1.6107,0,0,1.6145,1.6147,0,0,0,0,0,0,0,0,1.567,1.5681,1.5799,1.5807,1.5817,1.5915,1.5863,1.5948,1.5992,1.5927,1.5998,1.6001,1.6057,1.6066,1.6086,1.6113,1.6119,1.6146,1.6148,1.6149,1.615,0,0,0,0,0,0,0,1.5664,1.5676,1.5784,1.58,1.5811,1.5842,1.5858,1.588,1.5977,1.5933,1.5943,1.5957,1.6062,1.6083,1.609,1.6121,1.6146,1.6148,1.615,1.6152,1.6133,1.6131,0,0,0,0,0,0,1.5645,1.5669,1.5779,1.5788,1.5748,1.5843,1.586,1.5881,1.5977,1.5994,1.5955,1.5962,1.6076,1.6086,1.6095,1.607,1.6149,1.6152,1.6154,1.6136,1.6133,1.613,0,0,0,0,0,0,1.5641,1.5654,1.5774,1.5731,1.5749,1.5843,1.5865,1.5882,1.5903,1.5994,1.6011,1.5958,1.6078,1.6091,1.6104,1.6076,1.6153,1.6156,1.6138,1.6135,1.6132,1.6017,0,0,0,0,0,0,1.5637,1.5652,1.5642,1.573,1.5751,1.5781,1.5863,1.5883,1.5908,1.5919,1.6001,1.6017,1.6081,1.6099,1.6107,1.6082,1.6158,1.6141,1.6137,1.6133,1.6024,1.601,1.5998,0,0,0,0,0,1.5631,1.5604,1.5641,1.5653,1.5741,1.5779,1.5791,1.5866,1.5905,1.5896,1.5955,1.6014,1.6077,1.6099,1.6109,1.6085,1.6143,1.6138,1.6133,1.603,1.6013,1.5999,0,0,0,0,0,0,1.5509,1.5617,1.5659,1.566,1.5709,1.58,1.5792,1.5846,1.5885,1.5894,1.5985,1.6002,1.6005,1.6046,1.6068,1.6063,1.6119,1.6115,1.6036,1.6021,1.6009,1.6,1.6161,0,0,0,0,0,1.5482,1.5505,1.5597,1.5589,1.5611,1.5696,1.5716,1.577,1.5825,1.5846,1.5906,1.5956,1.5988,1.6006,1.604,1.6029,1.605,1.6018,1.6005,1.5994,1.5991,1.599,1.5977,1.6113,1.6113,1.6113,0,0,1.5427,1.5489,1.5497,1.5566,1.5611,1.5632,1.5714,1.5732,1.5749,1.5849,1.5866,1.5911,1.5973,1.5974,1.5978,1.6008,1.5957,1.5987,1.5978,1.5981,1.5983,1.597,1.5958,1.6109,1.611,1.6111,0,0,1.5338,1.5386,1.5386,1.5429,1.5496,1.5553,1.5552,1.5635,1.5669,1.5688,1.5764,1.5784,1.5836,1.5878,1.5905,1.5832,1.5888,1.584,1.5774,1.5772,1.5761,1.5752,1.5728,1.5718,1.5836,1.5835,1.5835,0,1.5261,1.5297,1.5378,1.5393,1.5421,1.5513,1.5513,1.5551,1.5624,1.5642,1.5675,1.5743,1.5791,1.5804,1.5786,1.5805,1.5808,1.5832,1.5756,1.5748,1.5741,1.5719,1.5709,1.5829,1.583,1.583,1.5831,0,1.52,1.5223,1.5214,1.5285,1.5312,1.5319,1.5401,1.5418,1.5469,1.5522,1.554,1.5601,1.5649,1.5656,1.5705,1.5676,1.5693,1.574,1.5798,1.5721,1.5701,1.5693,1.582,1.5823,1.5824,1.5826,0,0,1.504,1.5155,1.5151,1.5185,1.5265,1.5285,1.5295,1.5344,1.5358,1.5405,1.5417,1.5459,1.5503,1.5534,1.5589,1.5587,1.5527,1.5634,1.5637,1.5614,1.55,1.5467,1.5455,1.5564,1.5562,1.5561,1.5496,0,1.4966,1.4993,1.5066,1.507,1.5093,1.518,1.519,1.524,1.529,1.5316,1.5371,1.54,1.5454,1.5474,1.5476,1.5533,1.5505,1.5539,1.5576,1.5577,1.5561,1.5445,1.541,1.5345,1.5489,1.5487,1.5486,0,1.4885,1.4928,1.4935,1.5015,1.5028,1.5035,1.5086,1.511,1.5168,1.5205,1.5239,1.53,1.5317,1.5369,1.5393,1.5414,1.5433,1.5463,1.5463,1.5471,1.5529,1.5452,1.5326,1.5317,1.5475,1.5476,1.5477,0,1.477,1.4829,1.4842,1.4868,1.4961,1.4965,1.5004,1.5065,1.5089,1.5133,1.515,1.5194,1.5218,1.5251,1.5322,1.5353,1.5338,1.5396,1.5369,1.5367,1.5364,1.5364,1.5241,1.5372,1.5372,1.5372,1.5372,0,1.4682,1.4683,1.4792,1.48,1.4804,1.4887,1.4888,1.4935,1.4988,1.5007,1.5083,1.5098,1.519,1.5216,1.5271,1.5283,1.5293,1.5323,1.5338,1.5318,1.5314,1.5333,1.5341,1.537,1.537,1.5371,1.5371,0,1.4555,1.4628,1.4648,1.4735,1.4757,1.4756,1.483,1.4841,1.4895,1.4917,1.4927,1.5011,1.5045,1.5119,1.5172,1.5209,1.5209,1.5234,1.5189,1.5199,1.5169,1.5172,1.5057,1.5047,1.5181,1.5179,1.5178,0,1.4496,1.4499,1.4586,1.4605,1.4641,1.4669,1.4695,1.4776,1.48,1.4867,1.4869,1.491,1.4947,1.4997,1.5063,1.5104,1.5133,1.5089,1.5139,1.5119,1.5135,1.5135,1.5136,1.5079,1.5077,1.5075,1.5074,0,1.4383,1.4419,1.4454,1.4501,1.453,1.4571,1.4616,1.4626,1.4718,1.474,1.4777,1.4805,1.4861,1.49,1.4951,1.4991,1.5048,1.5057,1.5054,1.5034,1.5009,1.5025,1.5162,1.506,1.5062,1.5063,1.5063,1.5064,1.429,1.4298,1.4361,1.4397,1.444,1.448,1.4495,1.455,1.4583,1.4635,1.468,1.4713,1.4771,1.4846,1.4882,1.4908,1.4937,1.4931,1.493,1.4928,1.492,1.5003,1.4918,1.4918,1.4919,1.4919,1.4919,0,1.4183,1.4228,1.4261,1.4322,1.435,1.4401,1.4454,1.4474,1.4502,1.4552,1.4587,1.4629,1.4668,1.4736,1.478,1.4788,1.4815,1.4797,1.4799,1.4807,1.4891,1.4891,1.4774,1.4774,1.4774,1.4774,1.4774,1.4774,1.4132,1.4148,1.4191,1.4228,1.4273,1.4307,1.4333,1.437,1.4411,1.4455,1.4488,1.4532,1.4589,1.4638,1.4676,1.4695,1.4708,1.4682,1.4709,1.4787,1.4801,1.4814,1.4814,1.4684,1.4684,1.4624,1.4623,1.4623]}]]